IZ2OSD Weather Reports


time (UTC)temp
F
wind
direction
speed
knots
gust
knots
rain 1hr
in
rain 24hr
in
rain mn
in
humidity
%
barometer
mb
20260506044508 54 112 4.3 9.6 0.02 0.46 0.04 99 1007.9
20260506043505 54 112 2.6 7.0 0.02 0.46 0.04 99 1008.0
20260506042459 54 292 1.7 3.5 0.03 0.46 0.04 99 1008.0
20260506041456 54 292 2.6 5.2 0.02 0.44 0.03 99 1008.0
20260506040453 54 315 1.7 5.2 0.01 0.43 0.02 99 1008.4
20260506035512 54 135 1.7 2.6 0.01 0.43 0.02 99 1008.0
20260506034443 54 292 2.6 7.0 0.01 0.43 0.02 99 1007.9
20260506033440 54 112 2.6 5.2 0.02 0.43 0.02 99 1008.2
20260506032436 55 90 1.7 3.5 0.01 0.42 0.01 99 1008.5
20260506031432 55 0 2.6 7.8 0.01 0.42 0.01 99 1008.3
20260506030428 55 315 0.0 1.7 0.01 0.42 0.01 99 1008.5
20260506025425 55 112 0.9 2.6 0.01 0.42 0.01 99 1009.0
20260506024421 55 90 1.7 3.5 0.01 0.42 0.01 98 1008.8
20260506023418 55 292 0.9 2.6 0.00 0.41 0.00 98 1008.7
20260506022414 55 135 1.7 5.2 0.00 0.41 0.00 98 1009.2
20260506021410 55 112 0.9 2.6 0.00 0.41 0.00 98 1009.0
20260506020407 55 90 0.9 2.6 0.00 0.41 0.00 98 1009.5
20260506015405 55 112 1.7 3.5 0.00 0.41 0.00 99 1009.3
20260506014402 55 112 2.6 7.0 0.00 0.41 0.00 98 1009.2
20260506013358 55 90 2.6 7.0 0.00 0.41 0.00 99 1009.4
20260506012355 55 292 2.6 5.2 0.00 0.41 0.00 99 1009.3
20260506011352 55 135 0.9 2.6 0.00 0.41 0.00 99 1009.3
20260506010348 55 315 2.6 5.2 0.00 0.41 0.00 99 1009.6
20260506005346 55 112 2.6 3.5 0.00 0.41 0.00 99 1009.5
20260506004342 55 135 1.7 5.2 0.00 0.41 0.00 99 1009.8
20260506003339 55 45 1.7 3.5 0.00 0.41 0.00 99 1009.9
20260506002336 55 315 2.6 3.5 0.00 0.41 0.00 99 1009.9
20260506001333 55 315 2.6 3.5 0.00 0.41 0.00 99 1010.1
20260506000330 55 315 0.9 2.6 0.00 0.41 0.00 99 1009.9
20260505235327 55 90 0.0 0.9 0.00 0.41 0.00 99 1010.1
20260505234324 55 202 0.0 1.7 0.00 0.41 0.00 99 1010.3
20260505233321 55 292 0.0 1.7 0.00 0.41 0.00 99 1010.5
20260505232317 55 315 0.9 2.6 0.00 0.41 0.00 99 1010.4
20260505231312 55 315 0.0 1.7 0.00 0.41 0.00 99 1010.4
20260505230309 55 337 0.0 1.7 0.00 0.41 0.00 99 1010.5
20260505225306 55 315 0.9 3.5 0.00 0.41 0.00 99 1010.6
20260505224405 55 0.0 0.9 0.00 0.41 0.00 99 1010.7
20260505223259 55 0.0 0.9 0.00 0.41 0.00 99 1010.7
20260505222256 55 67 0.0 1.7 0.00 0.41 0.00 99 1010.9
20260505221251 55 0.0 0.9 0.00 0.41 0.00 99 1011.0
20260505220247 55 0.0 0.9 0.00 0.41 0.00 99 1010.7
20260505215245 55 315 0.0 1.7 0.00 0.41 0.41 99 1010.9
20260505214302 55 0.0 0.9 0.00 0.41 0.41 99 1010.9
20260505213237 55 315 0.9 2.6 0.00 0.41 0.41 99 1011.1
20260505212234 55 112 0.9 2.6 0.00 0.41 0.41 98 1011.3
20260505211230 55 128 0.9 1.7 0.00 0.41 0.41 98 1011.4
20260505210221 55 315 2.6 3.5 0.00 0.41 0.41 98 1011.3
20260505205238 55 337 1.7 3.5 0.00 0.41 0.41 98 1011.5
20260505204208 55 315 0.9 2.6 0.01 0.41 0.41 98 1011.6
20260505203157 55 315 0.9 2.6 0.01 0.41 0.41 98 1011.4
20260505202156 55 112 2.6 2.6 0.01 0.41 0.41 98 1011.5
20260505201144 55 112 1.7 3.5 0.01 0.41 0.41 98 1011.6
20260505200155 55 135 0.0 1.7 0.01 0.41 0.41 98 1011.7
20260505195144 55 0.0 0.0 0.01 0.41 0.41 98 1011.4
20260505194119 55 0.0 0.0 0.00 0.40 0.40 98 1011.4
20260505193110 55 112 2.6 5.2 0.00 0.40 0.40 98 1011.4
20260505192248 55 135 0.9 2.6 0.00 0.40 0.40 98 1011.1
20260505191055 55 112 0.9 2.6 0.00 0.40 0.40 98 1011.1
20260505190052 55 315 1.7 3.5 0.00 0.40 0.40 99 1011.0
20260505185048 55 112 1.7 3.5 0.00 0.40 0.40 99 1011.1
20260505184044 55 0 1.7 2.6 0.00 0.40 0.40 99 1011.2
20260505183123 55 0 0.0 1.7 0.00 0.40 0.40 99 1011.1
20260505182033 55 315 2.6 5.2 0.00 0.40 0.40 99 1011.0
20260505181029 55 315 1.7 5.2 0.00 0.40 0.40 99 1011.2
20260505180024 55 315 2.6 5.2 0.00 0.40 0.40 99 1011.0
20260505175020 55 112 3.5 5.2 0.00 0.40 0.40 99 1010.9
20260505174017 55 315 2.6 5.2 0.00 0.40 0.40 99 1010.9
20260505173011 55 315 5.2 7.8 0.00 0.40 0.40 99 1011.1
20260505172050 54 337 5.2 9.6 0.00 0.40 0.40 98 1011.1
20260505171006 55 292 2.6 5.2 0.00 0.40 0.40 98 1011.2
20260505170458 55 315 1.7 5.2 0.01 0.40 0.40 99 1010.9
20260505165456 55 315 2.6 3.5 0.01 0.40 0.40 98 1011.1
20260505164452 55 292 2.6 5.2 0.01 0.40 0.40 98 1011.2
20260505163448 55 292 4.3 7.8 0.02 0.40 0.40 98 1011.2
20260505162446 55 315 2.6 5.2 0.02 0.40 0.40 98 1011.2
20260505161501 55 135 1.7 5.2 0.02 0.40 0.40 98 1011.0
20260505160437 55 292 3.5 5.2 0.01 0.38 0.38 98 1011.2
20260505152417 56 45 3.5 5.2 0.00 0.37 0.37 98 1011.4
20260505151414 55 90 1.7 3.5 0.00 0.37 0.37 98 1011.4
20260505150410 55 315 1.7 3.5 0.01 0.37 0.37 98 1011.4
20260505140335 56 337 0.9 2.6 0.00 0.36 0.36 95 1011.6
20260505130254 56 315 0.9 2.6 0.00 0.36 0.36 94 1011.9
20260505124302 56 315 2.6 5.2 0.00 0.36 0.36 94 1011.6
20260505123236 55 315 1.7 2.6 0.01 0.36 0.36 94 1011.8
20260505122233 55 315 0.9 2.6 0.01 0.36 0.36 94 1011.8
20260505121230 55 315 2.6 5.2 0.02 0.36 0.36 95 1011.9
20260505120220 55 315 2.6 2.6 0.03 0.36 0.36 95 1011.9
20260505115237 55 315 2.6 5.2 0.03 0.36 0.36 96 1012.0
20260505114213 55 315 2.6 3.5 0.04 0.36 0.36 96 1011.9
20260505113230 54 315 2.6 2.6 0.04 0.35 0.35 95 1011.9
20260505112207 54 0.0 0.9 0.07 0.35 0.35 95 1012.1
20260505111224 55 0.0 0.0 0.08 0.34 0.34 95 1012.0
20260505110240 55 315 0.0 0.9 0.07 0.33 0.33 95 1012.3
20260505102134 54 315 0.9 2.6 0.04 0.28 0.28 94 1012.0
20260505101132 55 292 0.9 1.7 0.03 0.25 0.25 93 1011.9
20260505100127 55 315 0.0 0.9 0.03 0.25 0.25 92 1012.2
20260505095122 55 0.0 0.0 0.02 0.24 0.24 92 1012.2
20260505094118 55 315 0.0 0.9 0.02 0.24 0.24 92 1012.2
20260505093109 55 315 0.9 1.7 0.01 0.23 0.23 92 1012.2
20260505092126 55 315 1.7 2.6 0.01 0.23 0.23 91 1012.2
20260505091102 55 315 0.0 1.7 0.00 0.22 0.22 91 1011.9
20260505090058 54 315 2.6 3.5 0.00 0.22 0.22 91 1012.0
20260505085056 54 315 1.7 3.5 0.00 0.22 0.22 93 1012.0
20260505084045 54 337 1.7 3.5 0.00 0.22 0.22 94 1011.8
20260505083041 54 315 2.6 3.5 0.01 0.22 0.22 95 1011.5
20260505082031 53 315 5.2 7.0 0.01 0.22 0.22 95 1011.9
20260505081025 54 315 3.5 7.0 0.02 0.22 0.22 96 1011.7
20260505080022 54 315 0.9 2.6 0.05 0.22 0.22 97 1011.8
20260505075020 54 315 3.5 5.2 0.05 0.22 0.22 97 1011.6
20260505074017 54 315 2.6 5.2 0.09 0.22 0.22 97 1011.5
20260505073032 54 315 4.3 7.0 0.09 0.21 0.21 97 1011.6
20260505072009 55 315 1.7 3.5 0.12 0.21 0.21 96 1011.8
20260505071008 55 292 0.0 2.6 0.14 0.20 0.20 96 1011.2
20260505070002 54 292 2.6 3.5 0.14 0.16 0.16 96 1011.4
20260505064958 55 292 0.0 1.7 0.12 0.14 0.14 95 1011.5
20260505063955 55 0.0 0.0 0.12 0.12 0.12 95 1011.7
20260505062946 55 0.0 0.0 0.09 0.09 0.09 94 1011.5
20260505061944 55 0.0 0.9 0.07 0.07 0.07 93 1011.9
20260505060934 55 0.0 0.0 0.04 0.04 0.04 91 1011.7
20260505055932 55 292 0.0 0.9 0.02 0.02 0.02 89 1011.6
20260505054924 56 292 0.0 0.9 0.01 0.01 0.01 86 1011.5
20260505053921 57 292 0.0 0.9 0.00 0.00 0.00 82 1011.5
20260505052919 57 315 0.0 0.9 0.00 0.00 0.00 78 1011.1
20260505051909 58 0.0 0.9 0.00 0.00 0.00 75 1011.1
20260505050906 59 0.0 0.9 0.00 0.00 0.00 73 1011.0